Altus AFB, OK

11:53 PM CDT on April 20, 2018 (GMT -0500)
Altus Air Force Base

Weather History for KLTS - February, 2014

Change the Weather History Date:

Friday, February 14, 2014

  Actual Average Record
Temperature  
Mean Temperature 49 °F -  
Max Temperature 65 °F 55 °F 81 °F (2015)
Min Temperature 31 °F 32 °F 31 °F (2014)
Degree Days  
Heating Degree Days 16    
Moisture  
Dew Point 29 °F    
Average Humidity 58    
Maximum Humidity 100    
Minimum Humidity 17    
Precipitation  
Precipitation 0.00 in - - ()
Sea Level Pressure  
Sea Level Pressure 29.94 in    
Wind  
Wind Speed 12 mph (NNE)    
Max Wind Speed 29 mph    
Max Gust Speed 38 mph    
Visibility 10 miles    
Events      
Averages and records for this station are not official NWS values.
T = Trace of Precipitation, MM = Missing Value Source: NWS Daily Summary

Daily Weather History Graph

Daily Weather History Graph

Search for Another Location

Airport or City:

Astronomy

Feb. 14, 2014 Rise Set
Actual Time 7:23 AM CST 6:19 PM CST
Civil Twilight 6:57 AM CST 6:45 PM CST
Nautical Twilight 6:28 AM CST 7:14 PM CST
Astronomical Twilight 5:58 AM CST 7:44 PM CST
Moon 6:22 PM CST (2/14) 6:52 AM CST (2/14)
Length of Visible Light 11h 47m
Length of Day
10h 55m
Full, 100% of the Moon is Illuminated
Feb 14
Full
Feb 14
Full
Feb 22
Last Quarter
Mar 1
New
Mar 8
First Quarter

Hourly Weather History & Observations

Time (CST) Temp. Windchill Dew Point Humidity Pressure Visibility Wind Dir Wind Speed Gust Speed Precip Events Conditions
12:58 AM 37.6 °F 33.1 °F 36.5 °F 96% 29.77 in 10.0 mi ESE 5.8 mph - N/A   Clear
1:58 AM 35.4 °F - 35.2 °F 99% 29.75 in 10.0 mi ESE 2.3 mph - N/A   Clear
2:58 AM 33.4 °F 29.1 °F 33.3 °F 99% 29.75 in 10.0 mi NNE 4.6 mph - N/A   Clear
3:58 AM 34.9 °F 30.8 °F 34.0 °F 97% 29.70 in 10.0 mi NNE 4.6 mph - N/A   Clear
4:58 AM 34.3 °F - 34.0 °F 99% 29.66 in 10.0 mi Calm Calm - N/A   Clear
5:58 AM 35.8 °F 27.3 °F 35.4 °F 99% 29.71 in 9.0 mi WNW 12.7 mph - N/A   Clear
6:58 AM 34.3 °F 24.6 °F 34.3 °F 100% 29.76 in 10.0 mi North 15.0 mph - N/A   Clear
7:58 AM 44.4 °F 35.7 °F 35.2 °F 70% 29.82 in 10.0 mi NNW 23.0 mph 28.8 mph N/A   Clear
8:58 AM 52.3 °F - 34.3 °F 50% 29.89 in 10.0 mi North 27.6 mph 33.4 mph N/A   Clear
9:58 AM 55.9 °F - 32.2 °F 41% 29.94 in 10.0 mi North 24.2 mph 33.4 mph N/A   Clear
10:14 AM 57.2 °F - 32.0 °F 38% 29.95 in 10.0 mi North 28.8 mph 35.7 mph N/A   Squalls
10:58 AM 58.5 °F - 30.4 °F 34% 29.99 in 10.0 mi North 26.5 mph 35.7 mph N/A   Clear
11:58 AM 60.8 °F - 31.1 °F 33% 30.02 in 10.0 mi North 21.9 mph 29.9 mph N/A   Clear
12:58 PM 62.4 °F - 28.2 °F 27% 30.01 in 10.0 mi NNW 25.3 mph 32.2 mph N/A   Clear
1:58 PM 64.8 °F - 23.4 °F 21% 30.01 in 10.0 mi North 25.3 mph 32.2 mph N/A   Clear
2:58 PM 65.7 °F - 18.9 °F 17% 30.00 in 10.0 mi North 27.6 mph 38.0 mph N/A   Clear
3:58 PM 63.9 °F - 19.4 °F 18% 30.02 in 10.0 mi NNE 20.7 mph 24.2 mph N/A   Clear
4:58 PM 61.3 °F - 19.0 °F 20% 30.06 in 10.0 mi North 15.0 mph - N/A   Clear
5:58 PM 57.2 °F - 20.1 °F 24% 30.07 in 10.0 mi NNE 10.4 mph - N/A   Clear
6:58 PM 44.8 °F 42.4 °F 23.7 °F 44% 30.09 in 10.0 mi North 4.6 mph - N/A   Clear
7:58 PM 39.7 °F - 24.4 °F 54% 30.11 in 10.0 mi NE 1.2 mph - N/A   Clear
8:58 PM 38.3 °F 35.9 °F 25.7 °F 61% 30.10 in 10.0 mi NE 3.5 mph - N/A   Clear
9:58 PM 35.1 °F 30.1 °F 25.3 °F 68% 30.10 in 10.0 mi North 5.8 mph - N/A   Clear
10:58 PM 39.6 °F 35.4 °F 24.4 °F 55% 30.10 in 10.0 mi NNE 5.8 mph - N/A   Clear
11:58 PM 31.8 °F 25.4 °F 25.9 °F 79% 30.11 in 10.0 mi NE 6.9 mph - N/A   Clear